Regional Weather Roundup
Issued by NWS

Home | Current Version | Previous Version | Text Only | Print | Product List | Glossary Off
Versions: 1 2 3 4 5 6 7 8 9 10 11 12 13 14 15 16 17 18 19 20 21 22 23 24 25 26 27 28 29 30 31 32 33 34 35 36 37 38 39 40 41 42 43 44 45 46 47 48 49 50

000
ASUS43 KOAX 302210
RWRNE

WEATHER ROUNDUP FOR NEBRASKA
NATIONAL WEATHER SERVICE OMAHA NE
500 PM CDT THU JUL 30 2015

NOTES: SATELLITE DATA IS BEING USED TO AUGMENT CLOUD COVER ABOVE
       12000 FEET.
       "FAIR" INDICATES FEW OR NO CLOUDS BELOW 12,000 FEET WITH NO
       SIGNIFICANT WEATHER AND/OR OBSTRUCTIONS TO VISIBILITY.

  * THESE STATIONS DO NOT REPORT WEATHER SUCH AS RAIN...SNOW OR FOG.

NEZ001>004-019>022-054>056-302300-
NEBRASKA PANHANDLE

CITY           SKY/WX    TMP DP  RH WIND       PRES   REMARKS
SCOTTSBLUFF    SUNNY     90  44  20 E7        30.24F
ALLIANCE       SUNNY     89  51  27 E10       30.23F
CHADRON        SUNNY     91  44  19 NE9       30.21F
KIMBALL        MOSUNNY   86  41  20 CALM      30.27F
SIDNEY         MOSUNNY   85  56  37 SE5       30.24F THUNDER
$$

NEZ057>060-069>072-079>082-302300-
SOUTHWEST NEBRASKA

CITY           SKY/WX    TMP DP  RH WIND       PRES   REMARKS
NORTH PLATTE   SUNNY     89  58  34 S7        30.18F
IMPERIAL       PTSUNNY   89  54  30 S7        30.20F
LEXINGTON      SUNNY     89  60  38 SW7       30.19F
MCCOOK         SUNNY     92  55  28 SE9       30.17F HX  90
OGALLALA       SUNNY     90  56  31 SE8G16    30.19F
$$

NEZ005>010-023>029-035>040-094-302300-
NORTH CENTRAL NEBRASKA

CITY           SKY/WX    TMP DP  RH WIND       PRES   REMARKS
VALENTINE      SUNNY     92  41  17 N10       30.17F
AINSWORTH      SUNNY     90  50  25 N3        30.17F
BROKEN BOW     SUNNY     89  62  40 SW8       30.18F
O`NEILL        PTSUNNY   90  55  31 NW3       30.15F
ORD            MOSUNNY   89  60  37 SW12      30.14F
THEDFORD       PTSUNNY   87  60  39 NE10      30.19F
$$

NEZ041-046>049-061>064-073>077-083>087-302300-
SOUTH CENTRAL NEBRASKA

CITY           SKY/WX    TMP DP  RH WIND       PRES   REMARKS
GRAND ISLAND   SUNNY     89  63  41 VRB7      30.18F HX  90
AURORA         PTSUNNY   87  65  48 CALM      30.17F
HASTINGS       SUNNY     86  64  47 W6        30.18F
HEBRON         SUNNY     87  56  35 SE7       30.16F
HOLDREGE       MOSUNNY   85  62  45 SE5       30.19F
KEARNEY *      SUNNY     88  64  45 SW7       30.18F
YORK           SUNNY     86  64  48 S7        30.17F
$$

NEZ011>018-030>034-042>045-302300-
NORTHEAST NEBRASKA

CITY           SKY/WX    TMP DP  RH WIND       PRES   REMARKS
NORFOLK        SUNNY     88  60  38 SW8       30.14F
ALBION         SUNNY     88  58  36 S8        30.16F
BLAIR          SUNNY     85  65  51 SW5       30.15F
COLUMBUS *     SUNNY     86  61  42 S7        30.15F
FREMONT        SUNNY     87  59  38 SW7       30.15F
TEKAMAH        SUNNY     86  66  51 SW8       30.13F
WAYNE          SUNNY     88  62  42 SW8       30.14F
$$

NEZ050>053-065>068-078-088>093-302300-
SOUTHEAST NEBRASKA

CITY           SKY/WX    TMP DP  RH WIND       PRES   REMARKS
LINCOLN        SUNNY     90  57  32 S9        30.15F
OMAHA EPPLEY   MOSUNNY   91  57  31 W6G16     30.13F
BEATRICE       SUNNY     86  62  43 S7        30.16F
FALLS CITY     SUNNY     87  65  47 S9        30.14F
NEBRASKA CITY  SUNNY     86  55  34 SW6       30.16S
PLATTSMOUTH    SUNNY     87  56  34 W6        30.16S
$$

NEZ044-045-051>053-067-302300-
OMAHA AREA

CITY           SKY/WX    TMP DP  RH WIND       PRES   REMARKS
OMAHA EPPLEY   MOSUNNY   91  57  31 W6G16     30.13F
BLAIR          SUNNY     85  65  51 SW5       30.15F
FREMONT        SUNNY     87  59  38 SW7       30.15F
MILLARD        SUNNY     89  59  35 SW7       30.14F
OFFUTT AFB     SUNNY     88  60  39 W7        30.13F
PLATTSMOUTH    SUNNY     87  56  34 W6        30.16S
WAHOO          FAIR      87  60  39 W10       30.15S
$$


USA.gov is the U.S. government's official web portal to all federal, state and local government web resources and services.